Location: Sungai Bunut
(2.6333°N, 113.7333°E)
Time: 22:00:16
(UTC+00:00)

Transit 2A Rocket - Visible Passes

Search period start: 06 December 2023 00:00
Search period end: 16 December 2023 00:00
Orbit: 593 x 903 km, 66.7° (Epoch: 06 December)

Date Brightness Start Highest point End Pass type
(mag) Time Alt. Az. Time Alt. Az. Time Alt. Az.
06 Dec 6.6 10:44:38 10° SSE 10:47:59 17° ESE 10:50:55 11° ENE visible
06 Dec 6.4 12:25:38 10° SW 12:30:18 30° WNW 12:30:48 30° WNW visible
07 Dec 5.1 11:41:22 10° SSW 11:46:47 69° WNW 11:49:08 31° N visible
08 Dec 5.1 10:57:52 10° S 11:03:11 53° ESE 11:07:29 13° NE visible
09 Dec 7.2 11:57:54 10° WSW 12:01:43 20° WNW 12:05:20 10° NNW visible
10 Dec 6.0 11:13:06 10° SW 11:18:13 44° WNW 11:22:52 10° N visible
11 Dec 5.0 10:29:13 10° SSW 10:34:39 81° ESE 10:39:33 10° NNE visible
11 Dec 7.5 21:16:13 10° NE 21:19:00 15° ENE 21:21:54 10° ESE visible
12 Dec 7.6 11:30:47 10° W 11:33:08 13° WNW 11:35:25 10° NW visible
13 Dec 6.8 10:45:03 10° SW 10:49:37 29° WNW 10:53:50 10° N visible
13 Dec 5.7 21:29:13 10° N 21:33:55 52° ENE 21:39:05 10° SSE visible
14 Dec 7.0 20:46:34 10° NNE 20:50:24 23° ENE 20:54:30 10° ESE visible
15 Dec 5.3 21:44:16 10° NW 21:48:57 45° WSW 21:54:06 10° S visible
